"2014-11-10 00:01:00",1125101,2.514667,165.1987,3.58091,0.1547414,2.88,0,1.81,161.8689,4.239609,0.2176235,2.14,0,0.06373333,22.87,8.63,92,8.65,8.26,3.034,0.222,0,10.27,13.6,3.388,100.9914,8.05,8.05,8.04,0
"2014-11-10 00:02:00",1125102,2.668667,162.534,3.49843,0.2599453,3.33,0,1.694667,159.7381,5.370116,0.2048045,2.07,0,0.1274667,47.53,8.63,91.9,8.65,8.25,2.921,0.172,0,10.27,13.6,3.2,100.9893,8.05,8.05,8.04,0
"2014-11-10 00:03:00",1125103,2.723334,163.6003,2.678146,0.2542615,3.12,0,1.648,162.0766,4.787517,0.1979629,1.93,0,0.3188666,124.4,8.63,91.9,8.65,8.28,2.763,0.129,0,10.27,13.6,3.013,100.9883,8.05,8.05,8.04,0
"2014-11-10 00:04:00",1125104,2.791333,163.9922,5.197465,0.2092484,3.27,0,1.594667,160.4622,6.052159,0.2735414,2.09,0,0,0,8.63,91.8,8.65,8.29,2.729,0.193,0,10.27,13.6,3.263,100.9888,8.05,8.05,8.04,0
"2014-11-10 00:05:00",1125105,2.732,162.9995,2.190459,0.2790508,3.24,0,1.762,158.0743,5.957572,0.165618,1.94,0,0.06406667,21.33,8.63,91.9,8.65,8.29,3.075,0.166,0,10.27,13.6,3.388,100.987,8.05,8.05,8.05,0
"2014-11-10 00:06:00",1125106,2.665333,163.0657,2.862,0.2694158,3.13,0,1.774,162.2655,5.155139,0.2405216,2.25,0,0.1274667,49.2,8.63,92,8.64,8.29,2.879,0.182,0,10.27,13.6,3.2,100.9869,8.05,8.05,8.05,0
"2014-11-10 00:07:00",1125107,2.501333,164.7337,3.355639,0.2085464,3.07,0,2.005333,164.4622,5.730551,0.2530314,2.65,0,0.5735999,234.6,8.64,92,8.65,8.3,3.008,0.187,0,10.27,13.6,3.388,100.986,8.05,8.05,8.05,0
"2014-11-10 00:08:00",1125108,2.565333,162.3323,2.889707,0.1816542,2.88,0,1.704,160.9192,5.173701,0.131646,1.88,0,0.7006666,292.9,8.63,92.2,8.64,8.29,2.879,0.116,0,10.27,13.6,3.075,100.9842,8.05,8.05,8.05,0
"2014-11-10 00:09:00",1125109,2.442,161.7997,2.612587,0.1730202,2.79,0,1.730667,155.5399,5.348123,0.2226048,2.11,0,0.7670667,273.9,8.63,92.1,8.64,8.29,2.813,0.176,0,10.27,13.6,3.075,100.9843,8.05,8.05,8.05,0
"2014-11-10 00:10:00",1125110,2.498,160.1303,3.911757,0.2738174,2.98,0,1.666667,154.6707,6.125389,0.2603502,2.12,0,0.3832,138.3,8.62,92.2,8.63,8.27,2.663,0.148,0,10.27,13.6,2.95,100.9815,8.05,8.05,8.05,0
"2014-11-10 00:11:00",1125111,2.654667,158.068,4.917555,0.1498829,2.86,0,1.785333,156.0651,5.492212,0.2337767,2.11,0,0.4464666,172,8.62,92.1,8.63,8.26,2.696,0.117,0,10.27,13.6,2.95,100.982,8.05,8.05,8.05,0
"2014-11-10 00:12:00",1125112,2.370667,156.2646,4.023011,0.1914668,2.75,0,1.704,152.6,4.109868,0.1778313,2.05,0,0.3829333,146.2,8.62,92.1,8.63,8.27,2.742,0.164,0,10.27,13.6,3.013,100.9827,8.05,8.05,8.05,0
"2014-11-10 00:13:00",1125113,2.328,158.2712,5.819908,0.1633075,2.67,0,1.573333,154.0732,6.964518,0.1785746,2,0,0.4458,187.7,8.62,91.9,8.63,8.3,2.688,0.097,0,10.27,13.6,2.95,100.9827,8.05,8.05,8.05,0
"2014-11-10 00:14:00",1125114,2.566,156.9345,2.908403,0.2945686,3.17,0,1.571333,153.6688,5.385663,0.3240343,2.13,0,0.4462667,182.3,8.62,91.9,8.64,8.32,2.696,0.196,0,10.27,13.6,2.95,100.9846,8.05,8.05,8.05,0
"2014-11-10 00:15:00",1125115,2.408,156.7997,3.166064,0.1730973,2.69,0,1.672,158.2676,4.737676,0.1784825,2.01,0,0.1908667,86.4,8.63,92,8.64,8.33,2.792,0.182,0,10.27,13.6,3.138,100.9844,8.05,8.05,8.05,0
"2014-11-10 00:16:00",1125116,2.421333,159.4669,2.629521,0.1664478,2.69,0,1.584667,153.9318,3.695367,0.2023155,1.99,0,0,0,8.62,92.3,8.63,8.33,2.804,0.164,0,10.27,13.6,3.138,100.9873,8.06,8.06,8.05,0
"2014-11-10 00:17:00",1125117,2.474667,158.2667,1.948119,0.2111829,3.1,0,1.595333,158.1256,6.082243,0.1631714,1.87,0,0,0,8.62,92.5,8.64,8.33,2.592,0.19,0,10.27,13.6,2.95,100.9881,8.06,8.06,8.05,0
"2014-11-10 00:18:00",1125118,2.346667,157.7337,4.710495,0.1903564,2.68,0,1.494667,156.0014,5.794086,0.2595603,2.02,0,0.3182667,155.6,8.62,92.4,8.63,8.33,2.671,0.219,0,10.27,13.6,3.013,100.9858,8.06,8.06,8.05,0
"2014-11-10 00:19:00",1125119,2.166667,156.8664,3.702132,0.1242935,2.36,0,1.422667,148.9355,5.155177,0.2085015,1.77,0,0.1904667,83.8,8.62,92.5,8.63,8.32,2.45,0.194,0,10.27,13.6,2.763,100.9849,8.06,8.06,8.06,0
"2014-11-10 00:20:00",1125120,2.307333,154.9333,3.171603,0.205863,2.7,0,1.397333,150.4505,5.976845,0.1613471,1.71,0,0,0,8.62,92.3,8.63,8.33,2.704,0.182,0,10.27,13.6,3.013,100.9826,8.06,8.06,8.06,0
"2014-11-10 00:21:00",1125121,2.416667,158.1337,2.75327,0.1567447,2.66,0,1.49,153.5992,5.461421,0.1959251,1.75,0,0.3825333,166.3,8.62,92.5,8.63,8.33,2.579,0.136,0,10.27,13.6,2.825,100.9828,8.06,8.06,8.06,0
"2014-11-10 00:22:00",1125122,2.394666,157.1972,4.398933,0.1792528,2.7,0,1.43,153.4693,7.086713,0.1672124,1.72,0,0.3183333,142.3,8.63,92.4,8.62,8.32,2.6,0.166,0.2,10.27,13.6,2.888,100.9818,8.06,8.06,8.06,0
"2014-11-10 00:23:00",1125123,2.454,156.1343,4.586654,0.2195692,2.86,0,1.592,154.9356,4.779129,0.1898139,2.02,0,0.9550666,413.2,8.62,92.6,8.62,8.32,2.838,0.139,0,10.27,13.6,3.013,100.9834,8.06,8.06,8.06,0
"2014-11-10 00:24:00",1125124,2.724,156.8006,2.856207,0.1584003,2.96,0,1.624667,155.2767,6.262472,0.1915156,2.09,0,0.1278667,66,8.62,92.3,8.62,8.33,2.813,0.089,0,10.27,13.6,2.95,100.982,8.07,8.07,8.06,0
"2014-11-10 00:25:00",1125125,2.596667,157.0002,2.555793,0.1872491,2.94,0,1.764,155.8014,3.815059,0.2076471,2.04,0,0.2557333,127.2,8.61,92.3,8.63,8.32,2.913,0.144,0,10.27,13.6,3.138,100.9806,8.07,8.07,8.07,0
"2014-11-10 00:26:00",1125126,2.490667,155.0668,4.170024,0.2152043,2.84,0,1.772667,152.1951,5.401256,0.203026,2.16,0,0,0,8.61,92.4,8.62,8.33,2.813,0.146,0,10.27,13.6,3.2,100.9817,8.07,8.07,8.07,0
"2014-11-10 00:27:00",1125127,2.736,155.1328,3.441924,0.2133792,3.18,0,1.657333,153.9977,5.45106,0.1492411,1.95,0,0.06386667,31.8,8.61,92.6,8.62,8.33,3.008,0.165,0,10.27,13.6,3.2,100.9807,8.07,8.07,8.07,0
"2014-11-10 00:28:00",1125128,2.802666,156.1424,4.75334,0.2547539,3.18,0,1.67,152.7375,6.252203,0.2313439,2.11,0,0,0,8.61,92.6,8.63,8.33,3.075,0.217,0,10.28,13.6,3.45,100.9812,8.07,8.07,8.07,0
"2014-11-10 00:29:00",1125129,2.760667,153.598,4.19098,0.2523877,3.24,0,1.604667,154.1348,4.812388,0.1918981,1.94,0,0,0,8.61,92.7,8.63,8.33,3.046,0.14,0,10.29,13.6,3.325,100.9801,8.08,8.08,8.07,0
"2014-11-10 00:30:00",1125130,2.660667,155.8606,5.0681,0.1924739,3.01,0,1.656667,154.2617,7.186536,0.2556474,2.21,0,0,0,8.63,92.5,8.64,8.35,3.113,0.167,0,10.29,13.6,3.513,100.9784,8.08,8.08,8.08,0
"2014-11-10 00:31:00",1125131,2.640667,157.8011,3.467166,0.261877,3.19,0,1.716,149.3964,5.160101,0.2106434,2.07,0,0,0,8.64,92.4,8.65,8.36,2.979,0.174,0,10.29,13.6,3.325,100.9775,8.08,8.08,8.08,0
"2014-11-10 00:32:00",1125132,2.629333,154.9354,4.623304,0.1787165,2.92,0,1.479333,150.4008,4.771696,0.1720258,1.79,0,0,0,8.65,92.7,8.64,8.36,2.808,0.142,0,10.29,13.6,3.075,100.9775,8.08,8.08,8.08,0
"2014-11-10 00:33:00",1125133,2.432667,155.133,5.351251,0.187491,2.65,0,1.602,152.0671,4.917755,0.2393658,2.05,0,0,0,8.65,92.7,8.64,8.36,2.867,0.159,0,10.29,13.6,3.2,100.9768,8.09,8.09,8.08,0
"2014-11-10 00:34:00",1125134,2.433333,152.9972,4.424813,0.1599027,2.77,0,1.562667,150.2003,3.672594,0.1402125,1.8,0,0,0,8.63,93,8.64,8.36,2.804,0.185,0,10.29,13.6,3.138,100.9747,8.09,8.09,8.09,0
"2014-11-10 00:35:00",1125135,2.572666,150.1289,6.40371,0.1978372,2.83,0,1.88,145.7308,4.710139,0.2190586,2.38,0,0,0,8.63,92.8,8.64,8.36,3.038,0.182,0,10.29,13.6,3.325,100.9739,8.09,8.09,8.09,0
"2014-11-10 00:36:00",1125136,2.796,156.7986,4.620795,0.2332896,3.2,0,1.821333,152.5297,5.827797,0.234517,2.2,0,0,0,8.64,92.6,8.65,8.37,2.733,0.197,0,10.29,13.6,3.263,100.9753,8.1,8.1,8.09,0
"2014-11-10 00:37:00",1125137,2.54,150.9373,4.765035,0.2914332,2.93,0,1.567333,152.7102,8.923378,0.2007807,1.9,0,0,0,8.63,92.8,8.64,8.36,2.821,0.285,0,10.29,13.6,3.325,100.9751,8.1,8.1,8.1,0
"2014-11-10 00:38:00",1125138,2.956,153.2643,4.310017,0.2618854,3.36,0,1.975333,149.9845,6.347455,0.2706256,2.53,0,0,0,8.65,92.9,8.65,8.38,2.783,0.223,0,10.29,13.6,3.075,100.9752,8.1,8.1,8.1,0
"2014-11-10 00:39:00",1125139,2.916,157.5275,5.984548,0.2752405,3.21,0,1.941333,155.272,6.198372,0.220208,2.34,0,0,0,8.66,92.8,8.65,8.38,2.925,0.17,0,10.29,13.6,3.2,100.9747,8.1,8.1,8.1,0
"2014-11-10 00:40:00",1125140,2.867333,159.7346,2.694015,0.3975838,3.48,0,1.748667,157.9325,4.37324,0.2025131,2.1,0,0,0,8.66,92.9,8.65,8.38,3.083,0.142,0,10.29,13.6,3.325,100.9756,8.11,8.11,8.1,0
"2014-11-10 00:41:00",1125141,2.718,154.2001,3.849583,0.2021286,3.08,0,1.650667,152.7264,6.652846,0.2566052,2.14,0,0,0,8.65,93,8.65,8.38,3.017,0.284,0,10.29,13.6,3.513,100.9722,8.11,8.11,8.11,0
"2014-11-10 00:42:00",1125142,2.822667,156.5303,4.7705,0.2899762,3.37,0,1.759333,155.0652,4.29609,0.3183597,2.29,0,0,0,8.66,93.1,8.65,8.38,3.071,0.145,0,10.29,13.6,3.263,100.9704,8.11,8.11,8.11,0
"2014-11-10 00:43:00",1125143,2.802666,157.0665,3.90583,0.3141437,3.21,0,2.012666,156.1982,5.513156,0.321672,2.55,0,0,0,8.66,93.2,8.65,8.38,2.85,0.309,0,10.29,13.6,3.263,100.9695,8.12,8.12,8.11,0
"2014-11-10 00:44:00",1125144,2.738667,159.4621,4.190113,0.3006408,3.3,0,1.938,159.4605,5.433125,0.2093864,2.29,0,0,0,8.66,93,8.66,8.38,3.221,0.239,0,10.29,13.6,3.513,100.9687,8.12,8.12,8.12,0
"2014-11-10 00:45:00",1125145,2.630666,159.7329,3.923409,0.275934,3.12,0,1.578667,156.2778,7.02319,0.2216865,2.06,0,0,0,8.66,93,8.66,8.39,2.958,0.206,0,10.29,13.6,3.388,100.9693,8.12,8.12,8.12,0
"2014-11-10 00:46:00",1125146,2.799333,160.9326,3.567047,0.2911693,3.26,0,1.697334,157.5945,6.348715,0.2232925,2.04,0,0,0,8.67,92.9,8.67,8.4,2.754,0.127,0,10.29,13.6,2.95,100.9689,8.12,8.12,8.12,0
"2014-11-10 00:47:00",1125147,2.918667,161.0043,5.389684,0.3571529,3.6,0,1.728,162.5948,7.205581,0.2147929,2.12,0,0.191,91.7,8.67,92.8,8.68,8.4,2.896,0.303,0,10.29,13.6,3.45,100.9705,8.13,8.13,8.12,6.667
"2014-11-10 00:48:00",1125148,2.844,163.7302,4.200999,0.2025767,3.15,0,1.736667,162.3345,4.933532,0.2966405,2.27,0,0,0,8.68,92.9,8.68,8.4,2.838,0.3,0,10.29,13.6,3.513,100.9722,8.14,8.14,8.13,0
"2014-11-10 00:49:00",1125149,2.958667,164.2786,5.451638,0.2766193,3.3,0,1.887333,165.5289,5.182673,0.3371936,2.4,0,0,0,8.68,93,8.69,8.4,3.05,0.174,0,10.29,13.6,3.263,100.9741,8.15,8.15,8.14,0
"2014-11-10 00:50:00",1125150,2.915333,164.4012,3.628514,0.2329482,3.31,0,2.083333,166.0644,5.637022,0.337731,2.81,0,0,0,8.68,93.1,8.68,8.4,3.108,0.249,0,10.29,13.6,3.513,100.9731,8.16,8.16,8.15,0
"2014-11-10 00:51:00",1125151,2.662,166.8661,3.323512,0.1629806,2.98,0,2.016667,165.867,4.377708,0.2776969,2.41,0,0,0,8.7,93.1,8.69,8.4,3.183,0.197,0,10.29,13.6,3.513,100.9711,8.17,8.17,8.16,0
"2014-11-10 00:52:00",1125152,2.452667,164.8659,4.06301,0.2336227,2.9,0,2.041333,165.3305,7.504114,0.2403571,2.52,0,0,0,8.7,93.2,8.7,8.4,2.883,0.23,0,10.29,13.6,3.2,100.9708,8.19,8.19,8.17,0
"2014-11-10 00:53:00",1125153,2.308,165.1947,5.716499,0.2469061,2.76,0,1.886,165.5365,4.438405,0.238154,2.3,0,0,0,8.69,93.1,8.68,8.41,3.096,0.132,0,10.29,13.6,3.325,100.97,8.2,8.2,8.19,0
"2014-11-10 00:54:00",1125154,2.686,168.8641,5.288026,0.1643086,2.98,0,2.394667,164.338,5.62514,0.3444197,2.94,0,0,0,8.69,93.1,8.69,8.4,3.2,0.205,0,10.29,13.6,3.575,100.9709,8.22,8.22,8.2,0
"2014-11-10 00:55:00",1125155,2.584,164.6596,4.985719,0.1723872,2.92,0,2.464,164.0682,5.682762,0.2648975,2.82,0,0,0,8.71,93.1,8.69,8.41,3.142,0.437,0,10.3,13.6,4.075,100.9739,8.23,8.23,8.22,0
"2014-11-10 00:56:00",1125156,2.897333,164.8669,4.469953,0.2478566,3.27,0,2.129333,166.3934,7.57587,0.4017541,2.92,0,0,0,8.71,92.8,8.69,8.4,3.396,0.263,0,10.31,13.6,3.7,100.9756,8.24,8.24,8.23,0
"2014-11-10 00:57:00",1125157,3.152,165.8006,4.068661,0.3802315,3.72,0,2.102667,166.1954,6.512033,0.4338274,2.8,0,0,0,8.72,92.9,8.72,8.42,3.367,0.223,0,10.31,13.6,3.7,100.9757,8.25,8.25,8.24,0
"2014-11-10 00:58:00",1125158,3.32,168.2648,4.794085,0.6067069,4.21,0,2.166667,168.9876,7.618371,0.3039225,2.67,0,0,0,8.73,92.6,8.72,8.45,3.604,0.195,0,10.31,13.6,3.95,100.9791,8.25,8.25,8.25,0
"2014-11-10 00:59:00",1125159,3.168,166.7985,4.413517,0.3763191,3.71,0,2.422667,167.0033,5.597114,0.3037426,2.89,0,0,0,8.75,92.6,8.76,8.47,3.354,0.245,0,10.31,13.6,3.95,100.9769,8.26,8.26,8.26,13.33
"2014-11-10 01:00:00",1125160,3.196,169.0671,3.749358,0.231367,3.57,0,2.185333,169.9982,6.258751,0.3204552,2.87,0,0,0,8.76,92.6,8.76,8.48,3.388,0.253,0,10.31,13.6,3.888,100.9784,8.28,8.28,8.27,6.667
"2014-11-10 01:01:00",1125161,3.326667,167.0025,5.654965,0.3292146,3.92,0,2.464,170.6667,3.495512,0.3763119,2.94,0,0,0,8.78,92.6,8.77,8.48,3.45,0.331,0,10.31,13.6,4.012,100.9757,8.29,8.29,8.28,0
"2014-11-10 01:02:00",1125162,3.198667,169.0662,3.192279,0.3267592,3.69,0,2.195333,169.8572,5.219369,0.3050654,2.72,0,0,0,8.79,92.5,8.8,8.49,3.308,0.176,0,10.31,13.6,3.575,100.9746,8.3,8.3,8.29,0
"2014-11-10 01:03:00",1125163,3.313333,167.9348,4.264973,0.2785358,3.7,0,2.582667,168.996,3.930258,0.3080578,3.18,0,0,0,8.8,92.6,8.82,8.5,3.321,0.197,0,10.31,13.6,3.638,100.9756,8.31,8.31,8.3,0
"2014-11-10 01:04:00",1125164,2.936667,169.3987,4.422881,0.3234535,3.51,0,2.389333,166.6038,5.758058,0.2318179,2.89,0,0,0,8.8,92.7,8.82,8.5,3.3,0.316,0,10.31,13.6,4.012,100.9759,8.32,8.32,8.31,0
"2014-11-10 01:05:00",1125165,2.946666,170.8669,4.499272,0.3180705,3.79,0,2.374667,172.8602,4.726727,0.3768442,3.03,0,0,0,8.8,92.8,8.82,8.5,3.267,0.206,0,10.31,13.6,3.7,100.9777,8.33,8.33,8.32,0
"2014-11-10 01:06:00",1125166,3.008667,169.7244,5.341748,0.3471766,3.72,0,2.194,170.0695,5.394907,0.3193702,2.72,0,0,0,8.81,92.6,8.82,8.52,3.183,0.27,0,10.31,13.6,3.575,100.978,8.35,8.35,8.33,0
"2014-11-10 01:07:00",1125167,3.105334,170.2662,5.720153,0.3148093,3.78,0,2.082,172.5365,5.325484,0.2773974,2.62,0,0,0,8.82,92.6,8.82,8.52,3.221,0.154,0,10.33,13.6,3.388,100.9789,8.36,8.36,8.35,0
"2014-11-10 01:08:00",1125168,3.224,172.4613,6.268413,0.2554682,3.76,0,2.438667,174.6731,5.4802,0.3554315,3.04,0,0,0,8.83,92.6,8.83,8.54,3.583,0.327,0,10.33,13.6,4.075,100.9755,8.38,8.38,8.36,0
"2014-11-10 01:09:00",1125169,3.15,170.2663,4.477926,0.2111555,3.64,0,2.309333,169.7998,4.994866,0.2967708,2.64,0,0,0,8.83,92.6,8.83,8.54,3.475,0.293,0,10.34,13.6,3.95,100.9748,8.39,8.39,8.38,0
"2014-11-10 01:10:00",1125170,3.282,171.4021,4.700862,0.3019757,3.9,0,2.226,168.3301,5.169762,0.2430308,2.61,0,0,0,8.83,92.7,8.83,8.54,3.292,0.271,0,10.34,13.6,3.7,100.9748,8.4,8.4,8.39,0
"2014-11-10 01:11:00",1125171,2.998,171.8666,4.030058,0.3528399,3.71,0,2.312,170.7999,7.382572,0.3549122,2.97,0,0,0,8.83,92.5,8.83,8.55,3.404,0.365,0,10.34,13.6,4.2,100.9749,8.41,8.41,8.4,0
"2014-11-10 01:12:00",1125172,3.189333,170.468,4.300342,0.3168904,3.79,0,2.155333,166.7327,4.794578,0.2321742,2.47,0,0,0,8.83,92.4,8.83,8.54,3.4,0.446,0,10.34,13.6,4.325,100.9772,8.42,8.42,8.41,0
"2014-11-10 01:13:00",1125173,3.034667,166.9333,6.230772,0.3809614,3.78,0,2.074667,166.9297,5.037799,0.28633,2.39,0,0,0,8.83,92.6,8.83,8.54,3.542,0.393,0,10.34,13.6,4.138,100.976,8.43,8.43,8.42,0
"2014-11-10 01:14:00",1125174,3.092666,167.7994,4.775898,0.2312708,3.52,0,2.496,172.1929,5.377941,0.4517492,3.56,0,0,0,8.84,92.8,8.82,8.54,3.479,0.375,0.4,10.34,13.6,4.2,100.9766,8.44,8.44,8.43,0
"2014-11-10 01:15:00",1125175,3.17,168.1304,5.510351,0.2854704,3.77,0,2.24,166.6716,7.446127,0.3055705,2.74,0,0,0,8.84,92.6,8.83,8.54,3.554,0.267,0,10.34,13.6,4.075,100.9766,8.46,8.46,8.44,0
"2014-11-10 01:16:00",1125176,2.914,166.4616,6.866645,0.475546,4.01,0,2.587333,167.9435,7.173145,0.3735856,3.35,0,0,0,8.83,92.5,8.85,8.55,3.596,0.347,0.4,10.34,13.6,4.45,100.9799,8.47,8.47,8.46,0
"2014-11-10 01:17:00",1125177,3.126667,166.34,5.925387,0.4017738,3.68,0,2.464,170.5318,4.758075,0.2959009,2.91,0,0,0,8.83,92.6,8.84,8.56,3.742,0.23,0,10.35,13.6,4.2,100.9801,8.49,8.49,8.47,0
"2014-11-10 01:18:00",1125178,3.225333,167.3317,3.533057,0.3189957,3.63,0,2.239333,171.2716,7.512075,0.2157921,2.48,0,0,0,8.85,92.4,8.84,8.56,3.563,0.396,0,10.35,13.6,4.263,100.9789,8.52,8.52,8.5,0
"2014-11-10 01:19:00",1125179,3.032667,166.2723,5.648671,0.3824564,3.73,0,2.281333,166.0223,6.87918,0.304628,2.78,0,0,0,8.85,92.6,8.84,8.56,4.029,0.319,0,10.36,13.6,4.7,100.9769,8.54,8.54,8.52,0
"2014-11-10 01:20:00",1125180,2.989333,168.0661,4.506628,0.321361,3.54,0,2.347333,165.5289,7.908154,0.389589,3.3,0,0,0,8.85,92.6,8.85,8.56,3.267,0.289,0,10.36,13.6,3.638,100.9766,8.56,8.56,8.54,0
"2014-11-10 01:21:00",1125181,3.296,168.1368,5.860746,0.2715093,3.69,0,2.173333,163.6737,5.948295,0.2880431,2.8,0,0,0,8.85,92.7,8.85,8.56,3.754,0.449,0,10.36,13.6,4.513,100.9757,8.58,8.58,8.56,0
"2014-11-10 01:22:00",1125182,3.061333,165.1334,4.393569,0.3434893,3.57,0,2.472667,163.6645,3.378098,0.2804631,2.87,0,0,0,8.84,92.8,8.84,8.56,3.567,0.299,0,10.36,13.6,4.012,100.9762,8.59,8.59,8.58,0
"2014-11-10 01:23:00",1125183,2.952666,164.7392,5.306518,0.2886628,3.74,0,2.572,162.0001,5.425997,0.2424101,3.07,0,0,0,8.84,92.8,8.84,8.56,3.7,0.323,0,10.38,13.6,4.138,100.9767,8.6,8.6,8.59,0
"2014-11-10 01:24:00",1125184,3.220667,165.2704,4.355456,0.3520694,3.64,0,2.468667,167.1561,7.226179,0.4436195,3.59,0,0,0,8.84,92.5,8.85,8.56,3.579,0.32,0,10.38,13.6,3.95,100.9782,8.61,8.61,8.6,0
"2014-11-10 01:25:00",1125185,3.202,166.8739,5.157486,0.3138195,3.88,0,2.285333,165.2083,6.160665,0.2340617,2.79,0,0,0,8.84,92.9,8.84,8.56,3.538,0.208,0,10.38,13.6,3.888,100.981,8.63,8.63,8.62,0
"2014-11-10 01:26:00",1125186,3.264667,166.7971,4.591238,0.2509148,3.79,0,2.817333,166.1916,4.910329,0.3402837,3.53,0,0,0,8.85,93,8.85,8.56,3.442,0.423,0,10.38,13.6,4.7,100.9822,8.65,8.65,8.63,0
"2014-11-10 01:27:00",1125187,3.270667,167.6026,4.921834,0.2832306,3.88,0,2.334667,169.0628,5.625911,0.2478404,2.72,0,0,0,8.85,92.7,8.87,8.56,3.654,0.396,0.2,10.38,13.6,4.263,100.9835,8.66,8.66,8.65,0
"2014-11-10 01:28:00",1125188,3.275333,167.5352,4.408884,0.2571346,3.78,0,2.488,166.0693,4.765757,0.292807,3.12,0,0,0,8.86,92.7,8.86,8.56,3.45,0.27,0,10.38,13.6,3.95,100.9831,8.68,8.68,8.67,6.667
"2014-11-10 01:29:00",1125189,3.120667,167.0714,5.420531,0.4013223,3.88,0,2.399333,165.7333,4.667702,0.2652161,2.97,0,0,0,8.87,92.7,8.87,8.56,3.75,0.314,0,10.38,13.6,4.2,100.9816,8.7,8.7,8.69,20
"2014-11-10 01:30:00",1125190,3.398,168.3309,3.716709,0.3661002,3.98,0,2.305333,164.0004,6.959828,0.2618617,2.98,0,0,0,8.85,92.8,8.87,8.56,3.425,0.256,0.2,10.38,13.6,4.012,100.9743,8.72,8.72,8.7,26.67
"2014-11-10 01:31:00",1125191,3.678667,166.0044,4.483673,0.3726995,4.25,0,2.066,166.6608,8.00261,0.3774794,2.73,0,0,0,8.86,92.8,8.88,8.57,3.275,0.22,0,10.38,13.6,3.763,100.9723,8.74,8.74,8.72,0
"2014-11-10 01:32:00",1125192,3.079334,166.1965,4.719607,0.3037645,3.76,0,2.421333,168.9312,3.990544,0.4279543,3.05,0,0,0,8.86,92.7,8.88,8.57,3.517,0.234,0,10.39,13.6,3.888,100.9706,8.76,8.76,8.74,0
"2014-11-10 01:33:00",1125193,3.541333,165.8645,4.882447,0.5124043,4.43,0,2.466667,166.5945,5.336622,0.3739994,3.29,0,0,0,8.87,92.7,8.89,8.6,3.558,0.164,0,10.4,13.6,3.888,100.9718,8.77,8.77,8.76,0
"2014-11-10 01:34:00",1125194,3.068,165.1988,4.353651,0.306098,3.77,0,2.734,165.53,4.497809,0.2225548,3.12,0,0,0,8.88,92.4,8.89,8.61,3.433,0.197,0,10.4,13.6,3.7,100.9734,8.79,8.79,8.78,26.67
"2014-11-10 01:35:00",1125195,3.323334,165.8659,4.393928,0.345768,3.97,0,2.313333,166.6665,5.027692,0.3702912,2.87,0,0,0,8.86,92.8,8.88,8.59,3.413,0.25,0,10.4,13.6,4.012,100.972,8.81,8.81,8.79,53.33
"2014-11-10 01:36:00",1125196,3.305333,165.935,5.35914,0.4509526,4.03,0,2.254667,165.5331,4.923173,0.3859683,3.1,0,0,0,8.86,93,8.87,8.57,3.467,0.19,0,10.4,13.6,3.825,100.9723,8.82,8.82,8.81,0
"2014-11-10 01:37:00",1125197,3.252,165.5326,4.143943,0.386233,3.8,0,2.84,168.2016,4.789755,0.4919214,3.52,0,0,0,8.86,93.1,8.89,8.59,3.754,0.231,0,10.4,13.6,4.263,100.9718,8.83,8.83,8.82,0
"2014-11-10 01:38:00",1125198,2.868667,166.0215,6.138922,0.320684,3.63,0,2.551334,169.013,8.140763,0.3138761,3.13,0,0,0,8.87,93.1,8.89,8.6,3.9,0.24,0,10.41,13.6,4.263,100.9714,8.84,8.84,8.83,6.667
"2014-11-10 01:39:00",1125199,2.9,165.8659,4.616219,0.324592,3.4,0,2.322,164.2446,9.155104,0.3836178,3.14,0,0,0,8.88,93.1,8.88,8.6,3.808,0.285,0,10.42,13.6,4.325,100.9716,8.86,8.86,8.84,6.667
"2014-11-10 01:40:00",1125200,3.149334,164.0636,5.117026,0.3540144,3.85,0,2.437333,162.0435,7.849373,0.4038889,3.06,0,0,0,8.87,92.9,8.88,8.6,3.55,0.312,0.2,10.43,13.6,4.325,100.9693,8.87,8.87,8.86,0
"2014-11-10 01:41:00",1125201,3.272667,164.9292,5.730035,0.4172364,4.17,0,2.564667,163.6677,4.14098,0.3121937,3.1,0,0,0,8.86,92.8,8.9,8.62,3.642,0.279,0,10.43,13.6,4.138,100.9675,8.89,8.89,8.87,6.667
"2014-11-10 01:42:00",1125202,3.226,165.8653,4.175226,0.3774617,3.86,0,2.296667,167.9344,5.554511,0.2982542,2.76,0,0,0,8.86,92.9,8.9,8.63,3.667,0.211,0,10.43,13.6,4.075,100.9669,8.89,8.89,8.89,0
"2014-11-10 01:43:00",1125203,3.274667,167.4095,4.93094,0.3908599,4.22,0,2.213333,170.6647,4.864727,0.2969325,2.63,0,0,0,8.87,93.2,8.91,8.63,3.742,0.142,0,10.43,13.6,4.012,100.9659,8.91,8.91,8.89,0
"2014-11-10 01:44:00",1125204,3.404667,167.064,4.216984,0.2572123,4.16,0,2.307333,171.7319,5.432726,0.2793914,2.75,0,0,0,8.88,93.2,8.91,8.63,4.021,0.299,0.2,10.43,13.6,4.513,100.9659,8.93,8.93,8.92,0
"2014-11-10 01:45:00",1125205,3.301333,167.333,3.19676,0.3573582,3.82,0,2.423333,165.9895,6.657227,0.4231416,3.21,0,0,0,8.89,93.1,8.91,8.63,3.983,0.316,0,10.43,13.6,4.638,100.9659,8.95,8.95,8.93,0
"2014-11-10 01:46:00",1125206,3.258,168.932,4.653188,0.4651336,3.87,0,2.594,165.3991,5.916459,0.3668751,3.27,0,0,0,8.89,93.1,8.91,8.63,3.421,0.285,0,10.43,13.6,3.825,100.9645,8.97,8.97,8.96,0
"2014-11-10 01:47:00",1125207,3.464667,166.5982,4.126606,0.4130515,4.13,0,2.622667,166.2014,4.100419,0.3066698,3.4,0,0,0,8.9,93,8.92,8.63,3.808,0.21,0,10.43,13.6,4.2,100.9659,8.99,8.99,8.98,0
"2014-11-10 01:48:00",1125208,3.745333,167.6027,4.15854,0.3452702,4.35,0,2.551333,165.4656,4.192433,0.2230058,3.17,0,0,0,8.91,93,8.94,8.65,3.642,0.371,0.4,10.44,13.6,4.263,100.9661,9.01,9.01,8.99,0
"2014-11-10 01:49:00",1125209,3.194,165.5339,5.376384,0.3930021,4,0,2.553333,163.134,3.946261,0.2894285,3,0,0,0,8.91,93,8.93,8.65,3.846,0.314,0,10.45,13.6,4.45,100.966,9.03,9.03,9.01,0
"2014-11-10 01:50:00",1125210,3.522667,168.5353,5.250397,0.2474797,3.89,0,2.656,164.8652,5.690163,0.3263904,3.3,0,0,0,8.91,92.9,8.93,8.65,3.588,0.191,0,10.45,13.6,3.888,100.9648,9.07,9.07,9.03,0
"2014-11-10 01:51:00",1125211,3.212667,166.6002,5.399304,0.2970851,3.71,0,2.583333,163.8659,5.80488,0.3857575,3.28,0,0,0,8.91,92.9,8.94,8.65,3.875,0.155,0,10.45,13.6,4.138,100.9645,9.1,9.1,9.07,0
"2014-11-10 01:52:00",1125212,3.292,162.7325,3.604313,0.4375416,3.99,0,2.725333,165.3342,3.892336,0.3352982,3.27,0,0,0,8.92,93,8.94,8.65,3.5,0.18,0,10.45,13.6,3.7,100.9633,9.14,9.14,9.11,0
"2014-11-10 01:53:00",1125213,3.39,165.8671,3.159026,0.3355195,4.14,0,2.434666,164.3327,5.648915,0.4552489,3.32,0,0,0,8.93,93.1,8.96,8.67,4.258,0.428,0,10.45,13.6,4.888,100.963,9.17,9.17,9.14,0
"2014-11-10 01:54:00",1125214,3.283333,165.1327,3.402658,0.2789185,3.62,0,2.512666,164.8693,5.015701,0.3667963,3.36,0,0,0,8.92,93.2,8.96,8.67,3.925,0.408,0,10.47,13.6,4.763,100.9641,9.21,9.21,9.18,0
"2014-11-10 01:55:00",1125215,3.234667,166.2657,3.784452,0.3310562,3.83,0,2.817333,166.4005,4.207213,0.3592486,3.55,0,0,0,8.92,93.2,8.97,8.68,3.717,0.308,0,10.47,13.6,4.075,100.9659,9.24,9.24,9.21,0
"2014-11-10 01:56:00",1125216,3.419333,165.1982,6.240793,0.3505133,4.02,0,2.224667,158.2732,5.41993,0.2427582,2.62,0,0,0,8.92,93.1,8.96,8.69,3.596,0.262,0.2,10.47,13.6,3.95,100.9681,9.27,9.27,9.24,0
"2014-11-10 01:57:00",1125217,3.424001,165.0008,4.440994,0.3469256,3.93,0,2.331333,165.5323,8.932248,0.4551464,3.16,0,0,0,8.91,93.1,8.96,8.68,3.763,0.273,0,10.47,13.6,4.325,100.9666,9.3,9.31,9.27,0
"2014-11-10 01:58:00",1125218,3.332,163.8654,4.643926,0.3577932,3.96,0,2.680667,161.6699,4.510333,0.3083389,3.15,0,0,0,8.91,93.3,8.95,8.67,4.079,0.281,0,10.47,13.6,4.638,100.9646,9.33,9.33,9.31,0
"2014-11-10 01:59:00",1125219,3.566,165.5978,3.664597,0.2349411,3.91,0,2.421333,162.2027,5.807631,0.4278609,3.13,0,0,0,8.91,93.3,8.96,8.69,4.196,0.472,0,10.47,13.6,5.013,100.9612,9.35,9.35,9.33,0
"2014-11-10 02:00:00",1125220,3.242,164.072,6.624083,0.3873018,3.92,0,2.646667,161.9383,5.564364,0.2797062,3.04,0,0,0,8.93,93,8.97,8.71,4.233,0.47,0,10.47,13.6,5.013,100.9637,9.37,9.37,9.35,0
"2014-11-10 02:01:00",1125221,3.531334,165.3995,3.825798,0.2935045,4.03,0,2.502667,162.9361,7.816071,0.3302013,2.9,0,0,0,8.92,93.2,8.97,8.71,3.4,0.255,0,10.49,13.6,3.825,100.9612,9.39,9.39,9.37,0